Погода в Зашейке

Россия / Республика Карелия     66°15′10″N   31°06′29″E
темп.,
°C
ветер,
м/с
пор.,
м/с
влажн.,
%
обл.,
%
осадки,
мм/ч
давл.,
гПа
погр.,
м
18 мая, вт
вт1800:00+7в2295100 0.0 101213
03:00+6в2297100 0.0 101223
06:00+7всв2495100 0.0 1010110
09:00+10вюв3988100 0.1 1008324
12:00+10вюв3999100 3.5 1007335
15:00+9ююз239890 3.9 100776
18:00+10сз0097100 0.2 100662
21:00+9зюз11100100 2.4 100613
19 мая, ср
ср1900:00+9зсз11100100 0.4 100711
03:00+7зсз2299100 0.5 100710
06:00+8зюз1193100 0.0 100737
09:00+8ссз1193100 1.4 100721
12:00+7с249599 3.7 1008137
15:00+10св3585100 4.1 1008258
18:00+11св488871 0.8 1004282
21:00+10всв4798100 6.0 1003187
20 мая, чт
чт2000:00+10вюв2399100 1.9 100165
03:00+9вюв2299100 1.9 100034
06:00+9ююв38100100 2.4 999260
09:00+10ю5119496 3.4 1000484
12:00+7ю51197100 0.3 1002412
15:00+8ю4896100 0.4 1004258
18:00+7ю4799100 0.1 1004196
21:00+6ю3699100 0.3 1005116
21 мая, пт
пт2100:00+6ю22100100 0.2 100456
03:00+6ю22100100 0.4 100350
06:00+6ююз1199100 0.1 100355
09:00+6з1196100 0.1 1002155
12:00+7всв239699 0.2 1002238
15:00+7ссв3494100 0.2 1001227
18:00+6ссв2393100 0.4 1000236
21:00+5ссв1297100 1.9 999164
22 мая, сб
сб2200:00+5сз3598100 3.1 999223
03:00+4зсз3695100 4.1 999298
06:00+3зсз4893100 0.5 1000379
09:00+3зсз5987100 0.7 1002473
12:00+5зсз477996 0.1 1005509
15:00+8з366413 0.1 1006705
18:00+6ю3480100 0.0 1006101
21:00+6юв388241 0.0 1006188